COSMOS 415

Satellite information

Favourite Embed

Satellite Type and Status

PAYLOADIN ORBIT

Key statistics

Satellite COSMOS 415 at a glance.

Uptime

19726

Days in orbit

Revolutions

≈ 12.5

Per day

Orbit

LEO

Low Earth Orbit

Inclination

74.0

Latest

Satellite identification and parameters

Extended collection of information and parameters for COSMOS 415.

Object identification

Identified? True

Debris? False

Object name: COSMOS 415

International designator: 1971-041E

Object number (NORAD): 5214

Object ID (CCSDS): 5214

Country: COMMONWEALTH OF INDEPENDENT STATES (CIS)

Current information (Y/N): Y

RCS size: MEDIUM

Orbital parameters

Period: 115.432 minutes

Inclination: 74.0144 deg

SMA: 7853.151 km

Apoapsis: 1500.11 km

Periapsis: 1449.922 km

RAAN: 262.2507 deg

Eccentricy: 0.0031954

Argument of periapsis: 199.0014 deg

Mean anomaly: 160.9845 deg

Mean motion: 12.47489339 rev/day

Mean motion (dot): -0.00000018 rev/day2

B* drag term: -0.000013652 1/REarth

Two-line elements (TLE)

Creation date: May 9, 2025, 2:46 a.m.

Reference frame: TEME

Reference center: EARTH

Epoch: May 8, 2025, 5:20 p.m. UTC

TLE line 0: 0 COSMOS 415

TLE line 1: 1 05214U 71041E 25128.72271998 -.00000018 00000-0 -13652-4 0 9990

TLE line 2: 2 05214 74.0144 262.2507 0031954 199.0014 160.9845 12.47489339459241

Live tracking on map

Real-time ground track for satellite COSMOS 415.

In-orbit conjunctions

There are no conjunctions computed for COSMOS 415, at the moment. Check back to stay up to date, as we update our databases every day.

Go to all conjunctions

Associated space launch

Military communications satellites

COSMOS 415 was lifted into orbit during the mission ‘Kosmos-3M | Strela-1M 9-16’, on board a Kosmos-3M space rocket.

The launch took place on May 7, 1971, 2:20 p.m. from 132/1 (132L).

For more information about the launch, click the button.

Launch to space Kosmos-3M | Strela-1M 9-16
Kosmos-3M | Strela-1M 9-16

Agency: N/A

Status: Launch Successful

Launch date: May 7, 1971, 2:20 p.m. UTC

Rocket: Kosmos-3M

Launch pad: 132/1 (132L)

Location: Plesetsk Cosmodrome, Russian Federation

...

Latest news about this satellite

There are no fresh news available about this satellite. Check back as we update our databases every day.


Newsletter sign-up

Weekly statistics, charts and insights to help you stay on top of the space industry.